Location: Elstree
(51.6403°N, 0.2969°W)
Time: 17:11:45
(UTC+00:00)

Cosmos 1844 Rocket - Pass Details

Date: 03 March 2021
Orbit: 826 x 843 km, 71.0° (Epoch: 16 April)

Event Time Altitude Azimuth Distance (km) Brightness Sun altitude
Rises 18:19:43 0° 330° (NNW) 3,378 6.2 -6.1°
Reaches altitude 10° 18:22:14 10° 336° (NNW) 2,440 5.4 -6.5°
Maximum altitude 18:27:42 53° 53° (NE) 1,015 2.9 -7.4°
Drops below altitude 10° 18:33:07 10° 130° (SE) 2,427 4.6 -8.2°
Sets 18:35:37 0° 135° (SE) 3,358 5.4 -8.6°
